Home   Weather   Korbach   Past weeks

Flag for Germany Past Weather in Korbach, Hesse, Germany — Yesterday and Last 2 Weeks

Now
14 °F

Cold.


Feels Like: 4 °F
Forecast: 10 / 31 °F
Wind: 7 mph from Northwest

Location: Fritzlar Airport

Current Time: Jan 19, 2017 at 5:48:53 am

Latest Report: Jan 19, 2017 at 4:20 am


Visibility: N/A

Pressure: 30.66 "Hg

Humidity: 92%

Dew Point: 12 °F

Location of KorbachLocation

Past Weather in Korbach — Graph

°F

Korbach Temperature Yesterday

Maximum temperature yesterday: 28 °F (at 12:20 pm)
Minimum temperature yesterday: 18 °F (at 10:20 pm)
Average temperature yesterday: 23 °F

High & Low Weather Summary for the Past Weeks

 TemperatureHumidityPressure
High41 °F (Jan 4, 10:20 am)100% (Jan 8, 12:20 pm)30.74 "Hg (Jan 8, 12:20 pm)
Low14 °F (Jan 6, 7:20 am)55% (Jan 5, 1:20 pm)28.97 "Hg (Jan 13, 3:20 am)
Average30 °F83%30.12 "Hg
* Reported Jan 4 4:20 am — Jan 19 4:20 am, Korbach, Weather by CustomWeather, © 2017

Note: Actual official high and low records may vary slightly from our data, if they occured in-between our weather recording intervals... More about our weather records

Advertising

Korbach Weather History for the Previous 24 Hours

Scroll right to see more
 ConditionsComfort  
Time TempWeatherWind HumidityBarometerVisibility
4:20 am
Thu, Jan 19
14 °FCold.7 mph92%30.66 "HgN/A
3:20 am16 °FCold.3 mph86%30.66 "HgN/A
2:20 am16 °FCold.6 mph93%30.66 "HgN/A
1:20 am18 °FCold.6 mph86%30.66 "HgN/A
12:20 am18 °FCold.6 mph86%30.66 "HgN/A
11:20 pm
Wed, Jan 18
18 °FCold.3 mph93%30.66 "HgN/A
11:00 pm18 °FCold.5 mph93%30.69 "HgN/A
10:20 pm18 °FCold.3 mph93%30.69 "HgN/A
9:20 pm21 °FPassing clouds.3 mph86%30.66 "HgN/A
8:20 pm21 °FPassing clouds.2 mph86%30.66 "HgN/A
7:20 pm23 °FPassing clouds.No wind86%30.66 "HgN/A
6:20 pm25 °FPassing clouds.3 mph80%30.66 "HgN/A
5:20 pm27 °FPassing clouds.2 mph74%30.66 "HgN/A
4:20 pm28 °FPartly sunny.3 mph74%30.66 "HgN/A
3:20 pm28 °FPartly sunny.5 mph69%30.66 "HgN/A
2:20 pm28 °FPartly sunny.6 mph69%30.66 "HgN/A
1:20 pm28 °FPartly sunny.3 mph69%30.66 "HgN/A
12:20 pm28 °FPartly sunny.5 mph69%30.69 "HgN/A
11:20 am27 °FPartly sunny.3 mph74%30.69 "HgN/A
10:20 am25 °FPartly sunny.5 mph80%30.69 "HgN/A
9:20 am21 °FPassing clouds.2 mph86%30.69 "HgN/A
8:52 am21 °FPassing clouds.3 mph86%30.69 "HgN/A
8:22 am23 °FPartly sunny.5 mph80%30.69 "HgN/A
7:52 am23 °FPassing clouds.3 mph80%30.69 "HgN/A
7:20 am25 °FPassing clouds.5 mph80%30.69 "HgN/A
6:20 am25 °FPassing clouds.5 mph80%30.66 "HgN/A
5:20 am25 °FPassing clouds.3 mph80%30.66 "HgN/A
Weather by CustomWeather, © 2017

See weather overviewHow to use our weather pages